Flag for Japan Weather past 2 weeks in Kumamoto, Japan

Now
39 °F

Chilly.


Feels Like: 39 °F
Forecast: 34 / 54 °F
Wind: 1 mph from Northeast

Location: Kumamoto

Current Time: Mar 3, 2015 at 6:41:04 AM

Latest Report: Mar 3, 2015 at 5:00 AM


Visibility: N/A

Pressure: 30.03 "Hg

Humidity: 85%

Dew point: 35 °F

Location of KumamotoLocation

Historic Weather in Kumamoto — Graph

°F

Kumamoto temperature yesterday

Maximum temperature yesterday: 55 °F (at 4:00 PM)
Minimum temperature yesterday: 36 °F (at 7:00 AM)
Average temperature yesterday: 45 °F

Past Weeks' High & Low Weather Summary

 TemperatureHumidityPressure
High58 °F (Feb 16, 4:00 PM)100% (Feb 22, 7:00 AM)30.34 "Hg (Feb 22, 7:00 AM)
Low33 °F (Feb 20, 6:00 AM)31% (Feb 20, 4:00 PM)29.83 "Hg (Feb 16, 4:00 PM)
Average47 °F73%30.09 "Hg
* Reported Feb 16 5:00 AM — Mar 3 5:00 AM, Kumamoto, Weather by CustomWeather, © 2015

Note: Actual official high and low records may vary slightly from our data, if they occured in-between our weather recording intervals... More about our weather records

Advertising

Kumamoto weather history for previous 24 hours

 ConditionsComfort  
Time TempWeatherWind HumidityBarometerVisibility
5:00 AM
Tue, Mar 3
39 °FChilly.1 mph85%30.03 "HgN/A
3:00 AM38 °FOvercast.2 mph85%30.07 "Hg12 mi
2:00 AM39 °FChilly.1 mph85%30.06 "HgN/A
1:00 AM38 °FChilly.2 mph85%30.07 "HgN/A
12:00 AM40 °FQuite cool.1 mph81%30.07 "HgN/A
11:00 PM
Mon, Mar 2
41 °FQuite cool.2 mph78%30.09 "HgN/A
10:00 PM42 °FQuite cool.2 mph75%30.11 "HgN/A
9:00 PM44 °FPassing clouds.1 mph73%30.10 "Hg12 mi
8:00 PM46 °FCool.2 mph59%30.09 "HgN/A
7:00 PM49 °FCool.5 mph50%30.09 "HgN/A
6:00 PM51 °FPassing clouds.6 mph47%30.07 "Hg16 mi
5:00 PM54 °FCool.3 mph39%30.05 "HgN/A
4:00 PM55 °FRefreshingly cool.6 mph33%30.06 "HgN/A
3:00 PM54 °FPassing clouds.8 mph46%30.07 "Hg12 mi
2:00 PM55 °FCool.8 mph50%30.08 "HgN/A
1:00 PM52 °FCool.5 mph41%30.10 "HgN/A
12:00 PM51 °FPassing clouds.6 mph44%30.12 "Hg9 mi
11:00 AM49 °FCool.3 mph53%30.13 "HgN/A
10:00 AM46 °FCool.2 mph64%30.15 "HgN/A
9:00 AM41 °FPassing clouds.1 mph84%30.17 "Hg6 mi
8:00 AM38 °FChilly.1 mph93%30.17 "HgN/A
7:00 AM36 °FChilly.2 mph95%30.15 "HgN/A
6:00 AM37 °FOvercast.5 mph94%30.12 "Hg9 mi
Weather by CustomWeather, © 2015

See weather overviewHow to use our weather pages